Location: Unspecified
(0.0000°N, 0.0000°E)
Time: 15:11:27
(UTC+00:00)

Hubble Space Telescope - Pass Details

Date: 02 August 2020
Orbit: 536 x 540 km, 28.5° (Epoch: 08 August)

Event Time Altitude Azimuth Distance (km) Brightness Sun altitude
Exits shadow 05:33:34 - 273° (W) 1,936 3.0 -7.8°
Reaches altitude 10° 05:34:03 10° 277° (W) 1,782 2.9 -7.7°
Maximum altitude 05:37:22 23° 331° (NNW) 1,154 2.4 -6.9°
Drops below altitude 10° 05:40:41 10° 25° (NNE) 1,779 4.1 -6.1°
Sets 05:43:17 0° 39° (NE) 2,668 5.4 -5.5°
